Wind_Speed
4 7 8 11 8 11 8 7 7 6 5 5 7 7 5 3 5 6 6 5 5 5 5 5 4 4 4 3 3 3 4 6 7 8 10 11 10 8 7 5 3 6 13
3 4 6 8 8 10 8 6 6 5 4 4 6 7 6 4 5 5 5 4 2 2 2 4 5 5 4 3 3 4 6 8 9 11 13 6 6 6 5 3 3 9 10
2 3 4 6 7 7 9 6 3 4 5 4 5 6 5 5 4 4 5 4 4 4 4 5 4 3 4 5 6 6 9 11 12 12 11 9 7 6 4 2 1 7 9
4 1 4 4 6 6 7 7 3 3 4 3 4 4 5 4 4 2 3 4 5 4 3 4 5 5 6 7 9 10 10 11 12 11 10 8 8 6 6 4 3 5 7
5 4 3 5 5 4 5 4 4 4 3 2 3 4 4 3 3 2 2 2 2 3 3 4 5 7 7 9 9 10 11 10 10 10 9 8 8 7 6 5 5 5 7
8 6 4 3 5 4 3 3 3 4 4 2 2 2 3 2 1 2 2 3 5 4 4 4 5 7 7 7 7 6 7 7 7 6 7 6 7 7 7 7 6 6 6
8 6 5 5 4 4 4 3 4 1 3 3 4 4 1 1 2 2 2 4 4 5 5 5 5 6 7 7 7 6 6 5 4 7 5 5 6 7 6 7 6 7 7
9 7 5 4 2 2 3 4 4 1 1 1 2 2 3 3 2 3 2 2 3 4 5 6 6 6 7 6 7 7 7 5 5 6 4 3 5 7 7 7 7 7 8
11 9 6 4 3 0 2 3 2 1 5 3 4 4 4 5 3 3 4 3 3 3 4 5 5 5 4 4 5 5 5 4 4 3 3 3 5 7 7 7 7 8 8
13 10 7 4 4 2 1 1 1 3 4 5 5 5 6 6 5 4 4 6 5 4 3 3 4 3 3 4 3 4 3 3 3 3 3 5 6 6 6 7 7 8 9
13 11 8 7 6 3 3 3 1 2 4 4 6 9 7 9 5 5 5 6 6 6 5 3 4 4 3 4 4 3 3 4 6 4 5 7 6 6 7 7 8 8 9
11 11 10 9 7 7 8 7 6 7 5 3 3 1 2 7 6 7 7 8 7 8 7 5 6 5 6 6 5 4 4 6 7 7 7 8 8 7 8 8 8 9 9
12 12 11 8 7 9 10 11 10 7 5 4 1 2 1 3 6 7 9 4 4 7 11 9 6 6 7 9 7 6 6 6 6 7 8 9 10 10 10 11 11 12 12
12 11 9 11 10 10 11 11 8 6 4 5 4 3 3 6 6 5 6 6 5 4 3 7 8 10 11 12 10 9 10 10 10 11 10 11 13 13 12 12 13 14 15
13 12 11 12 11 13 10 10 8 5 7 8 8 7 9 9 8 8 7 8 10 8 10 12 10 8 8 8 13 12 13 13 15 15 14 13 13 14 13 13 14 16 17
15 14 12 14 14 15 12 9 11 11 10 11 14 12 11 13 14 13 10 10 10 8 9 5 9 9 10 10 10 12 13 14 17 17 18 17 15 16 15 14 14 16 20
18 17 15 15 14 16 15 15 14 14 12 12 10 11 14 18 17 13 9 9 10 11 11 10 10 12 13 12 12 15 14 21 19 19 18 22 19 17 16 17 15 15 15
19 17 15 15 13 12 14 16 16 18 16 13 14 14 15 9 12 12 12 12 13 13 14 13 15 15 16 17 18 17 17 17 19 20 22 23 24 20 19 17 15 14 13
16 14 12 10 11 13 13 13 14 16 16 14 14 16 17 16 15 15 15 16 16 17 18 18 18 18 19 20 20 21 21 20 17 19 21 17 23 23 21 18 16 16 16
13 14 13 12 13 14 14 13 13 14 16 18 17 17 17 18 20 21 22 23 23 22 22 23 23 22 23 23 24 25 24 22 20 19 18 17 23 29 20 20 19 18 19
13 14 13 12 13 14 14 14 15 17 17 18 19 20 21 22 23 25 24 26 27 26 26 26 27 26 26 26 26 24 26 24 23 21 20 19 23 22 24 25 23 23 22
12 13 13 14 14 13 12 13 15 16 16 17 19 20 22 23 24 25 25 26 28 28 29 30 28 28 29 28 29 27 25 25 24 25 23 23 24 24 29 27 25 27 27
16 14 13 12 10 11 10 11 12 15 16 17 19 22 24 26 26 27 27 28 28 29 30 32 29 30 31 32 31 30 30 27 27 23 28 26 25 22 24 27 29 32 31
16 15 14 13 13 13 12 14 15 16 17 18 20 20 21 24 27 28 30 31 30 31 32 34 33 33 33 35 35 33 32 31 29 27 30 29 28 30 29 29 30 32 29
16 15 15 16 16 16 16 17 17 17 18 17 19 23 26 29 32 33 34 33 32 33 36 36 35 35 35 37 37 36 34 34 31 33 32 34 34 37 31 32 34 38 36
19 20 20 21 21 20 20 21 23 24 23 25 26 28 30 32 34 36 37 38 38 39 39 37 38 38 36 36 38 37 38 36 37 36 35 39 38 39 35 33 36 38 41
Wind_Direction
84 75 70 73 80 69 82 84 88 79 75 79 93 105 107 125 128 111 152 179 174 159 157 152 174 175 204 209 227 254 288 288 287 293 285 280 292 311 330 18 36 87 170
114 101 76 86 89 78 86 69 69 83 76 78 82 92 102 123 156 149 148 152 150 161 199 200 207 207 226 249 279 300 295 292 289 284 282 306 295 300 307 330 352 138 153
174 102 95 114 101 92 67 67 79 96 85 57 72 90 104 117 141 168 177 184 203 209 224 245 254 250 264 276 282 284 278 293 294 288 285 284 276 283 286 289 115 133 151
162 126 152 134 98 97 76 56 56 102 86 77 74 71 94 115 123 145 174 198 212 222 239 256 259 259 263 274 280 285 286 282 280 279 278 273 266 261 254 242 198 175 171
177 186 135 137 117 103 71 48 64 90 97 122 98 83 79 97 132 157 189 222 245 246 238 255 268 271 275 278 279 282 279 274 273 268 265 261 260 249 239 227 207 190 186
189 195 187 162 132 102 65 24 46 118 158 143 136 136 118 98 93 172 200 234 258 267 276 272 280 279 274 273 273 272 272 272 266 263 261 252 252 242 229 220 208 198 194
202 202 199 194 152 112 74 45 6 15 109 179 192 147 199 172 134 169 176 223 250 263 276 267 259 259 260 260 260 256 260 259 257 254 251 247 246 237 223 215 209 203 199
209 214 209 204 163 108 67 15 348 274 349 285 259 179 194 225 251 270 280 281 278 264 263 264 255 251 254 256 260 260 259 255 259 255 250 236 234 234 220 213 212 213 206
212 217 214 217 237 183 68 43 39 325 306 287 262 229 214 216 242 262 268 269 264 269 258 251 249 250 248 256 265 263 260 253 248 252 258 245 221 215 216 214 220 222 220
218 215 220 227 251 240 138 90 35 296 312 298 288 269 257 225 221 222 262 268 263 261 258 255 250 256 258 293 271 258 268 270 259 257 260 244 231 215 221 227 228 229 226
218 221 231 239 250 261 266 284 223 248 276 289 306 280 248 218 251 211 239 260 261 258 268 273 287 277 259 273 281 285 291 274 263 236 238 245 233 223 224 224 223 224 228
216 225 229 242 250 271 275 273 252 274 254 253 345 48 187 214 217 247 239 235 245 250 256 274 266 263 265 266 267 277 290 285 273 263 255 246 241 236 234 237 237 233 232
217 229 236 241 257 270 277 273 259 250 264 244 343 355 288 253 272 275 280 228 269 262 247 278 246 253 269 272 266 262 267 266 271 278 275 264 257 242 238 240 241 245 244
224 240 251 258 261 270 285 260 246 239 251 266 268 262 269 274 267 282 272 247 267 292 266 251 265 273 271 268 258 266 269 269 271 277 281 277 264 252 246 246 248 250 250
239 243 248 254 264 270 280 251 264 267 257 271 272 269 260 260 257 270 265 256 263 252 254 289 252 255 279 270 260 270 269 273 275 277 275 278 268 255 250 250 250 253 254
249 250 251 252 258 262 266 258 270 279 271 279 283 265 275 276 269 253 258 259 253 278 282 269 237 256 263 265 272 281 279 272 275 275 274 267 270 261 252 253 262 266 262
249 251 248 253 255 260 267 265 261 268 273 281 283 259 270 278 253 267 260 264 262 267 276 272 272 267 261 266 271 273 284 282 277 281 280 261 257 259 259 259 267 278 273
254 253 251 249 251 262 266 264 261 263 274 280 282 271 281 302 239 242 256 261 269 271 273 274 275 277 276 274 278 271 282 294 273 281 286 271 244 253 255 263 267 271 274
243 248 246 253 260 263 264 271 265 272 281 279 281 271 271 269 267 264 261 260 261 265 271 274 272 275 277 281 284 282 282 286 289 282 284 273 242 245 252 253 261 266 267
235 236 243 251 255 260 263 270 276 278 280 284 284 280 279 279 275 276 277 277 276 273 270 271 273 274 275 276 278 279 281 280 290 290 283 272 256 241 248 256 257 262 263
237 241 243 246 252 257 262 267 268 269 272 275 280 282 281 279 276 276 277 277 278 279 281 278 276 275 274 274 275 279 274 276 281 285 282 277 259 250 254 258 257 258 261
231 234 238 243 247 251 254 259 265 273 279 282 287 290 291 292 290 288 286 283 282 280 277 276 274 275 273 271 273 275 278 271 273 275 279 281 287 271 257 266 258 261 262
228 231 233 235 238 246 254 260 268 276 287 290 294 296 299 299 297 293 290 289 287 285 283 281 278 274 270 270 271 271 272 269 268 273 269 269 275 274 268 268 265 262 262
221 225 231 237 245 252 260 269 278 281 285 291 295 297 298 296 296 299 300 297 291 287 282 279 278 274 274 272 270 270 269 272 270 267 269 273 271 271 272 271 264 267 262
240 249 255 258 261 265 268 272 276 275 279 285 287 289 290 291 294 294 292 289 287 286 283 281 278 276 273 273 272 270 270 271 270 267 265 266 269 270 274 274 270 271 268
257 258 261 267 267 266 268 273 277 278 278 280 286 290 293 297 296 294 291 287 285 281 276 276 276 277 274 272 271 269 267 265 263 266 265 267 267 272 275 275 278 274 267
Height
5920 5919 5919 5919 5919 5919 5919 5918 5917 5916 5915 5914 5913 5914 5914 5915 5917 5918 5919 5921 5922 5922 5922 5923 5924 5924 5925 5925 5926 5925 5926 5926 5926 5925 5924 5924 5923 5922 5922 5922 5922 5920 5923
5921 5921 5921 5921 5920 5920 5920 5919 5919 5918 5917 5915 5914 5914 5915 5916 5918 5918 5920 5921 5922 5922 5922 5923 5923 5924 5924 5925 5925 5925 5925 5925 5925 5925 5924 5924 5923 5923 5922 5922 5922 5921 5923
5922 5922 5921 5921 5920 5919 5920 5920 5919 5918 5918 5917 5916 5915 5915 5917 5919 5919 5920 5921 5922 5923 5923 5923 5923 5923 5923 5923 5923 5923 5924 5923 5923 5924 5923 5923 5923 5923 5923 5923 5923 5923 5923
5922 5923 5922 5922 5921 5919 5920 5920 5919 5917 5919 5919 5917 5917 5917 5917 5918 5919 5920 5920 5921 5922 5922 5923 5923 5923 5922 5922 5921 5922 5922 5923 5923 5922 5922 5922 5922 5922 5923 5923 5923 5924 5924
5922 5923 5923 5923 5921 5920 5920 5921 5920 5920 5920 5920 5920 5919 5919 5918 5918 5918 5919 5920 5920 5920 5921 5921 5921 5921 5921 5920 5920 5920 5921 5921 5921 5922 5922 5922 5922 5922 5923 5923 5924 5924 5924
5921 5923 5923 5923 5922 5921 5921 5921 5921 5921 5921 5921 5921 5920 5919 5919 5919 5919 5919 5920 5920 5920 5920 5920 5920 5920 5920 5920 5920 5920 5920 5920 5920 5921 5921 5921 5922 5922 5923 5923 5923 5924 5925
5921 5922 5922 5923 5922 5922 5921 5922 5922 5922 5921 5921 5920 5921 5921 5921 5920 5920 5920 5920 5920 5921 5921 5920 5920 5920 5920 5920 5920 5920 5920 5920 5920 5920 5920 5920 5921 5922 5922 5923 5923 5924 5925
5920 5921 5921 5922 5922 5922 5922 5923 5922 5922 5922 5921 5921 5920 5921 5922 5921 5921 5920 5920 5921 5921 5921 5922 5921 5921 5920 5920 5921 5921 5920 5920 5920 5920 5919 5919 5920 5922 5922 5922 5923 5924 5925
5918 5919 5920 5920 5921 5922 5922 5923 5922 5922 5921 5921 5921 5920 5919 5920 5920 5921 5921 5921 5922 5922 5921 5922 5921 5921 5920 5920 5920 5920 5921 5920 5920 5920 5920 5919 5920 5921 5921 5922 5922 5923 5924
5916 5917 5918 5919 5920 5921 5921 5922 5922 5921 5920 5920 5919 5919 5919 5919 5920 5920 5921 5922 5922 5922 5922 5922 5921 5920 5920 5920 5920 5921 5921 5920 5920 5920 5920 5920 5921 5920 5921 5922 5922 5923 5924
5915 5916 5917 5918 5919 5920 5920 5921 5921 5921 5920 5919 5918 5917 5917 5918 5919 5919 5919 5920 5921 5921 5921 5921 5921 5920 5920 5920 5921 5921 5921 5921 5921 5920 5920 5920 5920 5920 5921 5921 5922 5923 5923
5913 5915 5915 5916 5916 5917 5918 5919 5919 5919 5919 5918 5917 5916 5916 5917 5917 5918 5918 5918 5919 5920 5920 5920 5920 5920 5920 5920 5920 5920 5920 5921 5921 5921 5920 5919 5919 5919 5919 5920 5921 5922 5922
5911 5912 5913 5914 5914 5915 5915 5916 5917 5917 5917 5916 5915 5916 5916 5916 5916 5916 5916 5916 5916 5916 5917 5918 5918 5919 5919 5919 5919 5919 5919 5919 5919 5919 5919 5918 5918 5917 5917 5918 5919 5920 5920
5910 5910 5912 5913 5913 5914 5914 5914 5914 5914 5915 5914 5914 5914 5914 5915 5914 5914 5914 5914 5915 5915 5915 5916 5916 5916 5916 5917 5917 5917 5917 5917 5917 5916 5916 5915 5915 5915 5915 5915 5915 5916 5917
5908 5909 5910 5911 5912 5912 5912 5912 5912 5913 5913 5913 5913 5912 5912 5913 5912 5912 5912 5913 5913 5914 5914 5913 5914 5914 5914 5913 5914 5914 5914 5914 5914 5913 5913 5912 5912 5912 5912 5911 5912 5912 5913
5906 5907 5907 5908 5909 5910 5910 5910 5910 5911 5910 5910 5910 5910 5910 5910 5909 5909 5910 5910 5910 5911 5911 5909 5910 5911 5911 5911 5911 5910 5910 5910 5909 5909 5909 5909 5908 5908 5908 5907 5907 5907 5908
5903 5904 5904 5905 5906 5906 5906 5907 5908 5909 5908 5908 5907 5907 5907 5905 5905 5906 5907 5908 5908 5908 5908 5908 5908 5908 5908 5907 5907 5906 5906 5905 5904 5903 5903 5903 5904 5904 5904 5904 5903 5902 5901
5899 5901 5901 5902 5903 5904 5904 5904 5905 5907 5906 5905 5905 5905 5905 5903 5902 5903 5903 5904 5904 5904 5904 5904 5903 5904 5904 5903 5902 5902 5900 5899 5899 5898 5897 5895 5897 5899 5900 5900 5900 5899 5898
5895 5897 5898 5899 5900 5901 5901 5901 5903 5903 5902 5902 5902 5901 5901 5901 5901 5900 5899 5898 5899 5899 5899 5899 5898 5898 5898 5898 5898 5896 5895 5894 5894 5893 5892 5890 5891 5893 5894 5895 5895 5895 5895
5891 5893 5894 5895 5896 5898 5898 5898 5899 5900 5900 5899 5899 5899 5898 5897 5896 5897 5897 5896 5895 5894 5894 5894 5893 5892 5892 5891 5891 5891 5891 5890 5889 5887 5886 5887 5886 5886 5889 5890 5890 5891 5891
5887 5889 5891 5892 5893 5894 5894 5895 5895 5895 5895 5895 5895 5895 5895 5894 5893 5892 5892 5891 5890 5889 5888 5887 5886 5886 5885 5885 5884 5884 5883 5884 5884 5882 5882 5882 5882 5882 5883 5884 5884 5884 5885
5882 5884 5886 5887 5888 5889 5890 5891 5891 5892 5892 5891 5891 5891 5890 5889 5888 5887 5886 5886 5884 5883 5882 5881 5880 5879 5877 5877 5877 5876 5877 5877 5877 5876 5877 5876 5876 5875 5876 5877 5877 5878 5878
5877 5879 5880 5882 5883 5884 5885 5885 5885 5886 5886 5886 5885 5885 5884 5882 5881 5880 5879 5878 5878 5876 5876 5874 5873 5871 5870 5868 5869 5869 5869 5869 5869 5870 5868 5869 5869 5869 5870 5870 5870 5871 5871
5873 5874 5876 5877 5878 5880 5881 5881 5881 5880 5878 5878 5879 5879 5878 5876 5874 5874 5873 5873 5872 5869 5867 5866 5866 5864 5863 5860 5860 5859 5860 5861 5861 5861 5860 5861 5862 5861 5863 5863 5863 5862 5862
5871 5872 5873 5875 5875 5875 5875 5876 5876 5874 5873 5873 5871 5870 5869 5868 5866 5866 5865 5863 5861 5861 5859 5858 5857 5856 5855 5853 5851 5851 5852 5851 5852 5853 5853 5852 5853 5851 5854 5854 5855 5853 5853
5868 5868 5868 5870 5870 5870 5870 5870 5870 5869 5867 5866 5865 5864 5861 5860 5857 5854 5853 5851 5851 5848 5846 5846 5847 5846 5844 5844 5842 5841 5841 5842 5842 5843 5843 5842 5843 5843 5845 5845 5843 5843 5842